SQ3VAS-10 Weather Reports


time (UTC)temp
C
wind
direction
speed
KPH
gust
KPH
rain 1hr
cm
rain 24hr
cm
rain mn
cm
humidity
%
barometer
mb
20260507220630 10 0.0 0.0 0.00 0.00 0.00 75 1019.5
20260507215658 10 0.0 0.0 0.00 0.00 0.00 74 1019.4
20260507214726 10 0.0 0.0 0.00 0.00 0.00 75 1019.4
20260507213754 10 0.0 0.0 0.00 0.00 0.00 74 1019.4
20260507212822 10 0.0 0.0 0.00 0.00 0.00 75 1019.4
20260507211850 10 0.0 0.0 0.00 0.00 0.00 74 1019.3
20260507210918 10 0.0 0.0 0.00 0.00 0.00 74 1019.2
20260507205947 10 0.0 0.0 0.00 0.00 0.00 74 1019.0
20260507205014 10 0.0 0.0 0.00 0.00 0.00 73 1018.9
20260507204042 10 0.0 0.0 0.00 0.00 0.00 75 1018.9
20260507203111 10 0.0 0.0 0.00 0.00 0.00 75 1018.9
20260507202138 10 0.0 0.0 0.00 0.00 0.00 76 1018.9
20260507201206 10 0.0 0.0 0.00 0.00 0.00 80 1018.9
20260507200235 11 0.0 0.0 0.00 0.00 0.00 79 1018.7
20260507195305 11 0.0 0.0 0.00 0.00 0.00 77 1018.5
20260507194331 11 0.0 0.0 0.00 0.00 0.00 77 1018.4
20260507193359 11 0.0 0.0 0.00 0.00 0.00 76 1018.4
20260507192428 11 0.0 0.0 0.00 0.00 0.00 76 1018.2
20260507191457 11 0.0 0.0 0.00 0.00 0.00 77 1018.1
20260507190524 11 0.0 0.0 0.00 0.00 0.00 75 1018.0
20260507185552 11 0.0 0.0 0.00 0.00 0.00 74 1017.9
20260507184620 11 0.0 0.0 0.00 0.00 0.00 73 1017.7
20260507183648 12 0.0 0.0 0.00 0.00 0.00 71 1017.8
20260507182717 12 0.0 0.0 0.00 0.00 0.00 69 1017.6
20260507181746 12 0.0 0.0 0.00 0.00 0.00 70 1017.7
20260507180813 12 0.0 0.0 0.00 0.00 0.00 68 1017.4
20260507175841 12 0.0 0.0 0.00 0.00 0.00 68 1017.5
20260507174909 12 0.0 0.0 0.00 0.00 0.00 68 1017.3
20260507173936 12 0.0 0.0 0.00 0.00 0.00 67 1017.2
20260507173005 12 0.0 0.0 0.00 0.00 0.00 67 1017.2
20260507172033 12 0.0 0.0 0.00 0.00 0.00 66 1017.2
20260507171101 12 0.0 0.0 0.00 0.00 0.00 66 1017.0
20260507170128 12 0.0 0.0 0.00 0.00 0.00 66 1017.1
20260507165156 12 0.0 0.0 0.00 0.00 0.00 65 1017.0
20260507164224 12 0.0 0.0 0.00 0.00 0.00 65 1017.0
20260507163252 12 0.0 0.0 0.00 0.00 0.00 65 1017.0
20260507162320 13 0.0 0.0 0.00 0.00 0.00 65 1017.0
20260507161348 12 0.0 0.0 0.00 0.00 0.00 65 1017.0
20260507160417 12 0.0 0.0 0.00 0.00 0.00 64 1017.0
20260507155444 13 0.0 0.0 0.00 0.00 0.00 64 1016.9
20260507154512 12 0.0 0.0 0.00 0.00 0.00 64 1016.9
20260507153540 12 0.0 0.0 0.00 0.00 0.00 64 1016.8
20260507152607 13 0.0 0.0 0.00 0.00 0.00 63 1016.8
20260507151635 13 0.0 0.0 0.00 0.00 0.00 64 1016.8
20260507150704 12 0.0 0.0 0.00 0.00 0.00 64 1016.7
20260507145729 13 0.0 0.0 0.00 0.00 0.00 63 1016.7
20260507144757 13 0.0 0.0 0.00 0.00 0.00 61 1016.6
20260507143825 13 0.0 0.0 0.00 0.00 0.00 61 1016.5
20260507142853 13 0.0 0.0 0.00 0.00 0.00 61 1016.4
20260507141922 13 0.0 0.0 0.00 0.00 0.00 59 1016.3
20260507140951 14 0.0 0.0 0.00 0.00 0.00 59 1016.3
20260507140016 13 0.0 0.0 0.00 0.00 0.00 60 1016.3
20260507135043 14 0.0 0.0 0.00 0.00 0.00 58 1016.3
20260507134109 13 0.0 0.0 0.00 0.00 0.00 61 1016.2
20260507133138 13 0.0 0.0 0.00 0.00 0.00 60 1016.4
20260507132206 13 0.0 0.0 0.00 0.00 0.00 59 1016.3
20260507131234 13 0.0 0.0 0.00 0.00 0.00 61 1016.3
20260507130303 13 0.0 0.0 0.00 0.00 0.00 58 1016.2
20260507125330 13 0.0 0.0 0.00 0.00 0.00 61 1016.2
20260507124358 13 0.0 0.0 0.00 0.00 0.00 62 1016.2
20260507123427 13 0.0 0.0 0.00 0.00 0.00 61 1016.1
20260507122454 14 0.0 0.0 0.00 0.00 0.00 61 1016.0
20260507121521 13 0.0 0.0 0.00 0.00 0.00 61 1016.0
20260507120548 13 0.0 0.0 0.00 0.00 0.00 62 1016.0
20260507115615 13 0.0 0.0 0.00 0.00 0.00 63 1015.9
20260507114644 13 0.0 0.0 0.00 0.00 0.00 64 1015.9
20260507113712 13 0.0 0.0 0.00 0.00 0.00 63 1015.7
20260507112739 13 0.0 0.0 0.00 0.00 0.00 64 1015.8
20260507111806 12 0.0 0.0 0.00 0.00 0.00 65 1015.7
20260507110834 13 0.0 0.0 0.00 0.00 0.00 65 1015.7
20260507105901 12 0.0 0.0 0.00 0.00 0.00 66 1015.7
20260507104930 12 0.0 0.0 0.00 0.00 0.00 67 1015.6
20260507103957 12 0.0 0.0 0.00 0.00 0.00 65 1015.6
20260507103025 12 0.0 0.0 0.00 0.00 0.00 64 1015.5
20260507102053 12 0.0 0.0 0.00 0.00 0.00 67 1015.4
20260507101120 11 0.0 0.0 0.00 0.00 0.00 67 1015.4
20260507100149 11 0.0 0.0 0.00 0.00 0.00 67 1015.4
20260507095216 12 0.0 0.0 0.00 0.00 0.00 68 1015.2
20260507094245 12 0.0 0.0 0.00 0.00 0.00 66 1015.1
20260507093310 12 0.0 0.0 0.00 0.00 0.00 67 1015.0
20260507092338 12 0.0 0.0 0.00 0.00 0.00 68 1015.0
20260507091406 11 0.0 0.0 0.00 0.00 0.00 69 1014.9
20260507090434 11 0.0 0.0 0.00 0.00 0.00 70 1014.6
20260507085501 11 0.0 0.0 0.00 0.00 0.00 70 1014.6
20260507084529 11 0.0 0.0 0.00 0.00 0.00 70 1014.5
20260507083557 11 0.0 0.0 0.00 0.00 0.00 71 1014.5
20260507082625 11 0.0 0.0 0.00 0.00 0.00 71 1014.3
20260507081654 11 0.0 0.0 0.00 0.00 0.00 72 1014.4
20260507080719 11 0.0 0.0 0.00 0.00 0.00 72 1014.2
20260507074816 10 0.0 0.0 0.00 0.00 0.00 74 1014.0
20260507073843 10 0.0 0.0 0.00 0.00 0.00 75 1013.9
20260507072911 10 0.0 0.0 0.00 0.00 0.00 76 1013.9
20260507071939 10 0.0 0.0 0.00 0.00 0.00 76 1013.8
20260507071006 10 0.0 0.0 0.00 0.00 0.00 77 1013.8
20260507070034 10 0.0 0.0 0.00 0.00 0.00 77 1013.7
20260507065103 10 0.0 0.0 0.00 0.00 0.00 77 1013.7
20260507064129 10 0.0 0.0 0.00 0.00 0.00 76 1013.5
20260507063157 10 0.0 0.0 0.00 0.00 0.00 75 1013.5
20260507062225 10 0.0 0.0 0.00 0.00 0.00 76 1013.4
20260507061253 10 0.0 0.0 0.00 0.00 0.00 76 1013.2
20260507060321 10 0.0 0.0 0.00 0.00 0.00 77 1013.2
20260507055348 10 0.0 0.0 0.00 0.00 0.00 78 1013.2
20260507054417 10 0.0 0.0 0.00 0.00 0.00 77 1012.9
20260507053445 10 0.0 0.0 0.00 0.00 0.00 78 1013.0
20260507052512 10 0.0 0.0 0.00 0.00 0.00 77 1012.9
20260507051540 10 0.0 0.0 0.00 0.00 0.00 80 1012.9
20260507045636 9 0.0 0.0 0.00 0.00 0.00 80 1012.8
20260507044704 9 0.0 0.0 0.00 0.00 0.00 81 1012.7
20260507043732 9 0.0 0.0 0.00 0.00 0.00 81 1012.7
20260507042800 9 0.0 0.0 0.00 0.00 0.00 81 1012.6
20260507041828 9 0.0 0.0 0.00 0.00 0.00 82 1012.4
20260507040856 9 0.0 0.0 0.00 0.00 0.00 82 1012.4
20260507034952 9 0.0 0.0 0.00 0.00 0.00 83 1012.1
20260507034020 9 0.0 0.0 0.00 0.00 0.00 82 1012.0
20260507033048 8 0.0 0.0 0.00 0.00 0.00 84 1011.8
20260507032117 8 0.0 0.0 0.00 0.00 0.00 84 1011.7
20260507031145 8 0.0 0.0 0.00 0.00 0.00 85 1011.7
20260507030213 8 0.0 0.0 0.00 0.00 0.00 84 1011.6
20260507025241 9 0.0 0.0 0.00 0.00 0.00 83 1011.7
20260507024309 8 0.0 0.0 0.00 0.00 0.00 84 1011.5
20260507023337 8 0.0 0.0 0.00 0.00 0.00 85 1011.5
20260507022406 8 0.0 0.0 0.00 0.00 0.00 85 1011.5
20260507021434 8 0.0 0.0 0.00 0.00 0.00 85 1011.5
20260507020502 8 0.0 0.0 0.00 0.00 0.00 85 1011.5
20260507015530 8 0.0 0.0 0.00 0.00 0.00 85 1011.3
20260507014558 8 0.0 0.0 0.00 0.00 0.00 84 1011.3
20260507013627 8 0.0 0.0 0.00 0.00 0.00 85 1011.3
20260507012655 8 0.0 0.0 0.00 0.00 0.00 85 1011.3
20260507011723 8 0.0 0.0 0.00 0.00 0.00 86 1011.3
20260507010752 8 0.0 0.0 0.00 0.00 0.00 85 1011.2
20260507005820 8 0.0 0.0 0.00 0.00 0.00 85 1010.9
20260507004848 8 0.0 0.0 0.00 0.00 0.00 85 1010.9
20260507003916 8 0.0 0.0 0.00 0.00 0.00 85 1011.0
20260507002945 8 0.0 0.0 0.00 0.00 0.00 86 1010.8
20260507002012 9 0.0 0.0 0.00 0.00 0.00 84 1010.8
20260507001040 9 0.0 0.0 0.00 0.00 0.00 85 1011.0
20260507000108 9 0.0 0.0 0.00 0.00 0.00 84 1011.0
20260506235136 9 0.0 0.0 0.00 0.00 0.00 85 1010.9
20260506234204 9 0.0 0.0 0.00 0.00 0.00 85 1010.9
20260506233232 9 0.0 0.0 0.00 0.00 0.00 84 1010.9
20260506232300 9 0.0 0.0 0.00 0.00 0.00 85 1010.7
20260506231328 9 0.0 0.0 0.00 0.00 0.00 85 1010.8
20260506230356 9 0.0 0.0 0.00 0.00 0.00 86 1010.6
20260506225425 9 0.0 0.0 0.00 0.00 0.00 84 1010.4
20260506224452 9 0.0 0.0 0.00 0.00 0.00 85 1010.4
20260506223520 9 0.0 0.0 0.00 0.00 0.00 83 1010.4
20260506222547 9 0.0 0.0 0.00 0.00 0.00 83 1010.4
20260506221615 9 0.0 0.0 0.00 0.00 0.00 84 1010.6